Location: Newark
(40.7360°N, 74.1730°W)
Time: 02:56:03
(UTC-05:00)

ISS - All Passes

Search period start: 18 January 2017 00:00
Search period end: 28 January 2017 00:00
Orbit: 400 x 410 km, 51.6° (Epoch: 18 January)

Date Brightness Start Highest point End Pass type
(mag) Time Alt. Az. Time Alt. Az. Time Alt. Az.
18 Jan - 00:20:49 10° W 00:23:40 27° NNW 00:26:31 10° NE night (unlit)
18 Jan - 01:59:27 10° NNW 02:00:58 13° N 02:02:31 10° NNE night (unlit)
18 Jan - 03:36:21 10° NNW 03:38:29 16° NNE 03:40:37 10° NE night (unlit)
18 Jan - 05:12:16 10° NW 05:15:29 61° NE 05:18:42 10° ESE visible
18 Jan - 06:49:46 10° W 06:51:37 14° SW 06:53:28 10° SSW visible
18 Jan - 21:52:34 10° S 21:55:04 21° SE 21:57:34 10° E night (unlit)
18 Jan - 23:28:13 10° WSW 23:31:21 43° NNW 23:34:29 10° NE night (unlit)
19 Jan - 01:06:35 10° NW 01:08:28 14° NNW 01:10:21 10° NNE night (unlit)
19 Jan - 02:44:17 10° NNW 02:46:00 13° N 02:47:42 10° NE night (unlit)
19 Jan - 04:20:11 10° NW 04:23:12 35° NNE 04:26:14 10° E visible
19 Jan - 05:56:48 10° WNW 05:59:36 27° SW 06:02:24 10° SSE visible
19 Jan - 21:02:13 10° SE 21:03:04 11° SE 21:03:54 10° ESE night (unlit)
19 Jan - 22:35:50 10° SW 22:39:06 80° NNW 22:42:21 10° NE night (unlit)
20 Jan - 00:13:40 10° WNW 00:15:59 18° NNW 00:18:19 10° NNE night (unlit)
20 Jan - 01:52:01 10° NNW 01:53:28 12° N 01:54:54 10° NNE night (unlit)
20 Jan - 03:28:08 10° NNW 03:30:50 23° NNE 03:33:32 10° E night (unlit)
20 Jan - 05:04:19 10° WNW 05:07:30 54° SW 05:10:40 10° SE visible
20 Jan - 21:43:44 10° SW 21:46:54 51° SE 21:50:04 10° ENE night (unlit)
20 Jan - 23:20:49 10° W 23:23:32 24° NNW 23:26:16 10° NNE night (unlit)
21 Jan - 00:59:27 10° NNW 01:00:54 12° N 01:02:22 10° NNE night (unlit)
21 Jan - 02:36:06 10° NNW 02:38:23 17° NNE 02:40:40 10° ENE night (unlit)
21 Jan - 04:12:03 10° NW 04:15:18 77° NE 04:18:32 10° ESE visible
21 Jan - 05:50:16 10° WSW 05:51:21 11° SW 05:52:24 10° SSW visible
21 Jan - 20:52:00 10° SSW 20:54:46 26° SE 20:57:33 10° ENE night (unlit)
21 Jan - 22:28:06 10° W 22:31:09 36° NNW 22:34:13 10° NE night (unlit)
22 Jan - 00:06:36 10° NW 00:08:21 14° N 00:10:06 10° NNE night (unlit)
22 Jan - 01:44:01 10° NNW 01:45:53 14° N 01:47:44 10° NE night (unlit)
22 Jan - 03:19:54 10° NW 03:23:01 42° NNE 03:26:07 10° ESE night (unlit)
22 Jan - 04:56:45 10° W 04:59:19 21° SW 05:01:52 10° S visible
22 Jan - 20:00:58 10° SSE 20:02:43 14° SE 20:04:28 10° E night (unlit)
22 Jan - 21:35:36 10° WSW 21:38:50 64° NW 21:42:04 10° NE night (unlit)
22 Jan - 23:13:38 10° WNW 23:15:48 16° NNW 23:17:58 10° NNE night (unlit)
23 Jan - 00:51:48 10° NNW 00:53:19 13° N 00:54:49 10° NNE night (unlit)
23 Jan - 02:27:48 10° NW 02:30:38 27° NNE 02:33:27 10° E night (unlit)
23 Jan - 04:04:06 10° WNW 04:07:12 41° SW 04:10:16 10° SSE night (unlit)
23 Jan - 20:43:20 10° SW 20:46:34 66° SE 20:49:49 10° ENE night (unlit)
23 Jan - 22:20:43 10° WNW 22:23:18 21° NNW 22:25:54 10° NNE night (unlit)
23 Jan - 23:59:18 10° NNW 00:00:43 12° N 00:02:08 10° NNE night (unlit)
24 Jan - 01:35:44 10° NNW 01:38:10 19° NNE 01:40:36 10° ENE night (unlit)
24 Jan - 03:11:44 10° NW 03:14:59 85° SW 03:18:14 10° SE night (unlit)
24 Jan - 19:51:26 10° SSW 19:54:24 33° SE 19:57:21 10° ENE visible
24 Jan - 21:27:54 10° W 21:30:51 31° NNW 21:33:49 10° NE night (unlit)
24 Jan - 23:06:29 10° NW 23:08:07 13° N 23:09:45 10° NNE night (unlit)
25 Jan - 00:43:38 10° NNW 00:45:38 15° NNE 00:47:38 10° NE night (unlit)
25 Jan - 02:19:30 10° NW 02:22:41 51° NNE 02:25:52 10° ESE night (unlit)
25 Jan - 03:56:40 10° W 03:58:53 17° SW 04:01:06 10° S night (unlit)
25 Jan - 19:00:02 10° S 19:02:16 17° SE 19:04:30 10° E visible
25 Jan - 20:35:17 10° WSW 20:38:29 51° NNW 20:41:40 10° NE night (unlit)
25 Jan - 22:13:30 10° NW 22:15:31 15° NNW 22:17:32 10° NNE night (unlit)
25 Jan - 23:51:25 10° NNW 23:53:02 13° N 23:54:40 10° NE night (unlit)
26 Jan - 01:27:21 10° NW 01:30:18 31° NNE 01:33:14 10° E night (unlit)
26 Jan - 03:03:49 10° WNW 03:06:46 33° SW 03:09:42 10° SSE night (unlit)
26 Jan - 19:42:53 10° SW 19:46:09 84° SE 19:49:25 10° NE visible
26 Jan - 21:20:31 10° WNW 21:22:58 19° NNW 21:25:25 10° NNE night (unlit)
26 Jan - 22:58:59 10° NNW 23:00:25 12° N 23:01:49 10° NNE night (unlit)
27 Jan - 00:35:14 10° NNW 00:37:50 21° NNE 00:40:24 10° ENE night (unlit)
27 Jan - 02:11:19 10° WNW 02:14:33 67° SW 02:17:46 10° SE night (unlit)
27 Jan - 18:50:47 10° SSW 18:53:53 41° SE 18:57:00 10° ENE visible
27 Jan - 20:27:36 10° W 20:30:27 27° NNW 20:33:18 10° NE visible
27 Jan - 22:06:14 10° NNW 22:07:46 13° N 22:09:18 10° NNE night (unlit)
27 Jan - 23:43:06 10° NNW 23:45:16 16° NNE 23:47:25 10° ENE night (unlit)
